{"data":{"norad_id":58129,"intl_designator":"2023-162M","name":"STARLINK-30756","alt_names":[],"object_type":"PAYLOAD","status":"ACTIVE","operator":null,"country":"US","launch_date":"2023-10-22","launch_site_code":"AFETR","launch_vehicle":null,"mission":null,"orbit_class":"UNKNOWN","rcs_meters":null,"size_class":null,"mass_kg":null,"dimensions":null,"purposes":["comms"],"wikipedia_slug":null,"has_3d_model":false,"image_url":null,"decayed_at":null,"tle_current":{"epoch":"2026-05-25T04:02:19.419648Z","epoch_age_seconds":63685,"freshness":"FRESH","line1":"1 58129U 23162M   26145.16828032 -.00000091  00000+0  62356-5 0  9994","line2":"2 58129  43.0035  60.5560 0001445 265.9116  94.1570 15.27568656144004","mean_motion":15.27568656,"eccentricity":0.0001445,"inclination_deg":43.0035,"raan_deg":60.556,"arg_perigee_deg":265.9116,"mean_anomaly_deg":94.157,"bstar":6.2356e-6,"rev_number":14400,"period_min":94.267448755508,"perigee_km":482.09161796756,"apogee_km":484.07451056613,"semimajor_km":6861.2200642668,"source":"CELESTRAK","updated_at":"2026-05-25T13:38:18.532921Z"}}}